Location: City of Moscow
(46.7306°N, 116.9989°W)
Time: 04:15:47
(UTC+00:00)

Orbus 7S? - Pass Details

Date: 15 March 2026
Orbit: 354 x 6170 km, 56.9° (Epoch: 30 September)

Event Time Altitude Azimuth Distance (km) Brightness Sun altitude
Rises 13:01:04 0° 189° (S) 10,516 9.6 -11.0°
Reaches altitude 10° 13:09:01 10° 185° (S) 9,653 9.5 -9.6°
Maximum altitude 13:43:51 53° 121° (ESE) 5,365 8.7 -3.7°
Drops below altitude 10° 14:02:26 10° 53° (NE) 5,625 9.3 -0.5°
Sets 14:05:34 0° 49° (NE) 6,114 9.4 0.0°
